This demonstration page uses our WeatherBlox Daily Observations layout. Learn more.

Left ArrowRight Arrow

39.08367, -84.50855

Hourly Observations for December 29, 2019

Temp ( °F °C ) Dew Point ( °F °C ) Humidity (%) Winds ( mph kmh ) Pressure ( in mb ) Visibility ( mi km ) Precip ( " mm )
12:53 am 00:53 Cloudy 54 12.2 51 10.6 90 90 N N/A 29.96 1014 10 16 0.00 0.00
1:53 am 01:53 Cloudy 53 11.7 50 10 89 89 N N/A 29.93 1014 10 16 N/A
2:53 am 02:53 Cloudy with Light Rain 57 13.9 51 10.6 81 81 SSW 8 13 29.94 1014 6 10 0.01 0.25
3:53 am 03:53 Cloudy with Light Rain 57 13.9 52 11.1 83 83 SSE 6 9 29.91 1013 10 16 0.00 0.00
4:53 am 04:53 Cloudy 57 13.9 53 11.7 87 87 S 8 13 29.90 1013 10 16 0.01 0.25
5:53 am 05:53 Cloudy with Rain 56 13.3 54 12.2 93 93 N N/A 29.88 1012 4 6 0.04 1.02
6:44 am 06:44 Cloudy with Rain 55 12.8 54 12.2 96 96 SE 3 6 29.88 1012 3 4 0.12 3.05
6:53 am 06:53 Cloudy with Light Rain 56 13.3 54 12.2 93 93 SSE 6 9 29.88 1012 5 8 0.14 3.56
7:09 am 07:09 Cloudy with Rain 56 13.3 54 12.2 93 93 N N/A 29.87 1012 5 8 0.02 0.51
7:34 am 07:34 Cloudy with Heavy Rain 56 13.3 54 12.2 93 93 S 5 7 29.87 1012 3 5 0.08 2.03
7:53 am 07:53 Cloudy with Light Rain 56 13.3 54 12.2 93 93 S 3 6 29.85 1011 7 11 0.09 2.29
8:53 am 08:53 Cloudy with Light Rain 57 13.9 55 12.8 93 93 S 3 6 29.83 1010 10 16 0.04 1.02
9:53 am 09:53 Cloudy with Light Rain 58 14.4 56 13.3 93 93 SSW 8 13 29.85 1011 10 16 0.00 0.00
10:53 am 10:53 Cloudy with Light Rain 59 15 58 14.4 96 96 S 8 13 29.84 1010 7 11 0.03 0.76
11:53 am 11:53 Cloudy with Light Rain 60 15.6 59 15 96 96 SSW 6 9 29.83 1010 10 16 0.09 2.29
12:53 pm 12:53 Cloudy with Light Rain 61 16.1 60 15.6 97 97 SSW 5 7 29.79 1009 7 11 0.03 0.76
1:53 pm 13:53 Cloudy with Light Rain 61 16.1 59 15 93 93 SSW 8 13 29.78 1009 10 16 0.02 0.51
2:53 pm 14:53 Cloudy with Light Rain 60 15.6 58 14.4 93 93 SSW 8 13 29.77 1008 10 16 0.00 0.00
3:53 pm 15:53 Cloudy with Light Rain 59 15 58 14.4 96 96 N N/A 29.78 1008 10 16 0.00 0.00
4:53 pm 16:53 Cloudy with Light Rain 57 13.9 57 13.9 100 100 N N/A 29.78 1008 4 6 0.03 0.76
5:53 pm 17:53 Cloudy with Rain 56 13.3 56 13.3 100 100 W 6 9 29.76 1008 4 6 0.06 1.52
6:40 pm 18:40 Cloudy with Light Rain 55 12.8 55 12.8 100 100 N N/A 29.74 1007 3 4 0.02 0.51
6:53 pm 18:53 Cloudy with Rain 55 12.8 55 12.8 100 100 N N/A 29.73 1007 2 2 0.05 1.27
7:30 pm 19:30 Cloudy with Light Rain 55 12.8 55 12.8 100 100 NNW 3 6 29.73 1007 3 4 0.07 1.78
7:37 pm 19:37 Cloudy with Mist and Fog 55 12.8 55 12.8 100 100 N N/A 29.72 1007 3 5 0.08 2.03
7:53 pm 19:53 Cloudy with Light Rain 55 12.8 54 12.2 96 96 NE 3 6 29.70 1006 3 5 0.10 2.54
8:53 pm 20:53 Cloudy with Light Rain 54 12.2 54 12.2 100 100 S 5 7 29.69 1005 3 4 0.07 1.78
9:12 pm 21:12 Cloudy with Rain 56 13.3 55 12.8 97 97 SSE 6 9 29.67 1005 3 5 0.03 0.76
9:53 pm 21:53 Cloudy with Light Rain 55 12.8 54 12.2 96 96 SSE 8 13 29.63 1004 9 14 0.06 1.52
10:53 pm 22:53 Cloudy with Rain 56 13.3 53 11.7 90 90 E 12 19 29.51 999 9 14 0.12 3.05
11:53 pm 23:53 Cloudy 56 13.3 52 11.1 87 87 SE 8 13 29.45 997 10 16 0.01 0.25

Powered by AerisWeather